[[{"header":{"parameterUnit":"m.s-1","parameterCategory":1,"la1":30.2991,"la2":30.254,"lo1":-89.0895,"lo2":-89.0444,"dy":0.0017,"dx":0.0017,"nx":28,"ny":28,"refTime":"2025-03-28T09:00:00:Z","depth":0,"parameterNumber":2,"parameterNumberName":"U-component_of_WINDS"},"data":[0,0,0,0,0,0,0,0,0,0,0,0,0,0,0,0,0,0,0,0,0,0,0,0,0,0,0,0,0,0,0,0,0,0,0,0,0,0,0,0,0,0,0,0,0,0,0,0,0,0,0,0,0,0,0,0,0,0,-6.6777,-6.6779,0,-6.6911,-6.6913,-6.6914,-6.6894,-6.6892,-6.6889,-6.6887,-6.7022,-6.7027,-6.7033,0,0,0,0,0,0,0,0,0,0,0,0,0,-6.6502,-6.6507,-6.6777,-6.6779,-6.6781,-6.6911,-6.6913,-6.6915,-6.6894,-6.6892,-6.6889,-6.6886,-6.702,-6.7027,-6.7033,0,0,0,0,0,0,0,0,0,0,0,0,0,-6.6627,-6.6509,-6.6777,-6.6786,-6.6788,-6.6911,-6.6913,-6.6915,-6.6895,-6.6892,-6.6888,-6.6885,-6.7018,-6.7026,-6.7034,-6.7155,0,0,-6.706,-6.7064,0,0,0,0,0,0,0,0,-6.662,-6.6637,-6.6783,-6.6786,-6.6789,-6.6883,-6.6865,-6.6996,-6.6896,-6.6854,-6.6887,-6.6883,-6.6978,-6.699,-6.7022,-6.7161,-6.7167,-6.7061,-6.7066,-6.707,-6.7072,0,0,0,0,0,0,0,-6.6612,-6.6631,-6.683,-6.6785,-6.6789,-6.6783,-6.6797,-6.689,-6.6934,-6.6858,-6.6857,-6.6873,-6.6979,-6.7014,-6.7025,-6.7169,-6.7061,-6.7069,-6.7074,-6.7077,-6.7414,-6.7417,0,0,0,0,0,0,-6.6601,-6.6624,-6.6826,-6.6834,-6.6694,-6.6791,-6.6807,-6.6856,-6.6933,-6.6941,-6.6876,-6.6871,-6.7001,-6.7015,-6.703,-6.7175,-6.707,-6.7078,-6.7083,-6.741,-6.7414,-6.7419,0,0,0,0,0,0,-6.6595,-6.6619,-6.6821,-6.6729,-6.6754,-6.6799,-6.6855,-6.686,-6.6895,-6.6946,-6.6953,-6.6904,-6.6999,-6.7018,-6.7124,-6.7179,-6.7082,-6.709,-6.7405,-6.7411,-6.7417,-6.7466,0,0,0,0,0,0,-6.6587,-6.6617,-6.6663,-6.673,-6.6759,-6.6913,-6.6858,-6.6865,-6.691,-6.6906,-6.6974,-6.6982,-6.6998,-6.7111,-6.7133,-6.7189,-6.7096,-6.7401,-6.7408,-6.7415,-6.746,-6.7473,-6.7484,0,0,0,0,0,-6.6577,-6.6672,-6.6666,-6.669,-6.6819,-6.6916,-6.6933,-6.6949,-6.6915,-6.6961,-6.6995,-6.698,-6.7171,-6.7123,-6.7146,-6.7206,-6.7397,-6.7406,-6.7414,-6.7454,-6.747,-6.7484,0,0,0,0,0,0,-6.6608,-6.668,-6.6675,-6.6794,-6.6849,-6.6913,-6.6972,-6.6966,-6.7032,-6.7025,-6.7042,-6.7058,-6.7165,-6.7197,-6.7142,-6.7327,-6.7279,-6.7293,-6.7301,-6.7317,-6.7329,-6.7317,-6.7103,0,0,0,0,0,-6.663,-6.6704,-6.6762,-6.6862,-6.689,-6.6927,-6.697,-6.6978,-6.7036,-6.7059,-6.7099,-6.7155,-6.7228,-6.7275,-6.7344,-6.7466,-6.7479,-6.7519,-6.7531,-6.7541,-6.7551,-6.7617,-6.7634,-6.7447,-6.7447,-6.7447,0,0,-6.6673,-6.6722,-6.6767,-6.6869,-6.6913,-6.6988,-6.6946,-6.7028,-6.7083,-6.7071,-6.7173,-6.7206,-6.7269,-6.7383,-6.7436,-6.7413,-6.7607,-6.7552,-6.7559,-6.7564,-6.7627,-6.7645,-6.7661,-6.7453,-6.7452,-6.7451,0,0,-6.679,-6.6835,-6.6922,-6.6968,-6.7035,-6.7059,-6.708,-6.7146,-6.7167,-6.727,-6.7262,-6.7329,-6.7454,-6.7499,-6.7538,-6.7675,-6.7664,-6.7698,-6.776,-6.7824,-6.7838,-6.7851,-6.7898,-6.7914,-6.7709,-6.7709,-6.7709,0,-6.6834,-6.6948,-6.6967,-6.705,-6.7095,-6.7089,-6.7177,-6.722,-6.7306,-6.7337,-6.7311,-6.7468,-6.751,-6.7634,-6.7668,-6.7701,-6.7724,-6.7688,-6.7835,-6.7848,-6.7861,-6.7905,-6.7923,-6.7713,-6.7712,-6.7712,-6.7711,0,-6.6999,-6.7079,-6.7141,-6.7225,-6.7278,-6.7363,-6.7394,-6.7444,-6.7449,-6.7476,-6.7581,-6.7633,-6.7712,-6.7743,-6.7748,-6.7868,-6.7852,-6.7831,-6.7782,-6.7882,-6.7923,-6.7941,-6.7717,-6.7716,-6.7715,-6.7714,0,0,-6.7136,-6.7232,-6.7254,-6.7292,-6.7367,-6.7428,-6.7514,-6.7592,-6.7634,-6.7696,-6.7766,-6.7873,-6.7854,-6.7899,-6.7909,-6.7966,-6.8068,-6.7937,-6.7939,-6.7957,-6.8201,-6.8214,-6.8234,-6.8063,-6.8066,-6.8069,-6.8195,0,-6.7257,-6.7407,-6.7428,-6.756,-6.7633,-6.763,-6.7704,-6.7758,-6.7786,-6.7851,-6.7882,-6.7957,-6.7927,-6.7954,-6.801,-6.8044,-6.8117,-6.8036,-6.8126,-6.8129,-6.8107,-6.8256,-6.827,-6.8386,-6.8212,-6.8215,-6.8217,0,-6.7419,-6.7485,-6.7624,-6.769,-6.7721,-6.7787,-6.7861,-6.7925,-6.7986,-6.8002,-6.8054,-6.8058,-6.8145,-6.8096,-6.8216,-6.816,-6.8199,-6.8222,-6.8227,-6.8233,-6.8176,-6.8263,-6.8424,-6.844,-6.8243,-6.8241,-6.8239,0,-6.7501,-6.7625,-6.7724,-6.7758,-6.7837,-6.7883,-6.7919,-6.7977,-6.8023,-6.8088,-6.8118,-6.8193,-6.8232,-6.829,-6.8314,-6.8276,-6.8431,-6.8385,-6.8446,-6.8445,-6.8475,-6.8472,-6.8641,-6.8506,-6.8506,-6.8506,-6.8505,0,-6.7632,-6.7717,-6.7762,-6.7823,-6.7918,-6.7942,-6.8035,-6.8068,-6.8121,-6.8187,-6.8191,-6.8253,-6.8282,-6.8349,-6.8369,-6.8464,-6.8483,-6.8498,-6.8501,-6.8495,-6.8493,-6.8518,-6.8509,-6.851,-6.8509,-6.8508,-6.8508,0,-6.7738,-6.7772,-6.788,-6.7947,-6.7966,-6.8033,-6.809,-6.8149,-6.8178,-6.8262,-6.8284,-6.8328,-6.8407,-6.8438,-6.8535,-6.8548,-6.8657,-6.8656,-6.8636,-6.8636,-6.8694,-6.8687,-6.8882,-6.8908,-6.8759,-6.876,-6.8762,0,-6.7818,-6.7883,-6.7958,-6.8003,-6.804,-6.8114,-6.8161,-6.8188,-6.8237,-6.8313,-6.8362,-6.8441,-6.8505,-6.8632,-6.8673,-6.8747,-6.8745,-6.8809,-6.8756,-6.8748,-6.8743,-6.8737,-6.8743,-6.8817,-6.8819,-6.882,-6.8821,0,-6.7955,-6.7969,-6.8037,-6.8113,-6.817,-6.823,-6.8288,-6.8325,-6.8361,-6.8416,-6.8497,-6.8548,-6.8647,-6.8725,-6.8802,-6.8837,-6.8835,-6.8838,-6.8855,-6.8848,-6.8833,-6.8839,-6.8659,-6.8832,-6.8831,-6.883,-6.883,-6.8829,-6.8048,-6.8106,-6.8167,-6.8244,-6.8291,-6.8346,-6.8404,-6.8441,-6.851,-6.8593,-6.8605,-6.8692,-6.8752,-6.8855,-6.8895,-6.8962,-6.8945,-6.8971,-6.8977,-6.8982,-6.8985,-6.8825,-6.8977,-6.8977,-6.8976,-6.8976,-6.8976,0,-6.8183,-6.8223,-6.8293,-6.8376,-6.8436,-6.8431,-6.8496,-6.8546,-6.8622,-6.868,-6.8744,-6.8837,-6.8913,-6.8961,-6.9038,-6.9083,-6.9084,-6.9102,-6.9097,-6.9105,-6.8997,-6.8973,-6.91,-6.91,-6.91,-6.91,-6.91,-6.91,-6.8259,-6.8356,-6.8378,-6.8498,-6.8538,-6.8623,-6.866,-6.8711,-6.8757,-6.8861,-6.8925,-6.8956,-6.901,-6.9091,-6.916,-6.9172,-6.9199,-6.9218,-6.9229,-6.9126,-6.9113,-6.91,-6.9077,-6.9225,-6.9225,-6.9331,-6.9332,-6.9332]},{"header":{"parameterUnit":"m.s-1","parameterCategory":1,"la1":30.2991,"la2":30.254,"lo1":-89.0895,"lo2":-89.0444,"dy":0.0017,"dx":0.0017,"nx":28,"ny":28,"refTime":"2025-03-28T09:00:00:Z","depth":0,"parameterNumber":3,"parameterNumberName":"V-component_of_WINDS"},"data":[0,0,0,0,0,0,0,0,0,0,0,0,0,0,0,0,0,0,0,0,0,0,0,0,0,0,0,0,0,0,0,0,0,0,0,0,0,0,0,0,0,0,0,0,0,0,0,0,0,0,0,0,0,0,0,0,0,0,3.6487,3.6488,0,3.6592,3.6593,3.6594,3.6636,3.6635,3.6635,3.6635,3.6738,3.674,3.6743,0,0,0,0,0,0,0,0,0,0,0,0,0,3.6319,3.6322,3.6486,3.6488,3.6489,3.6591,3.6593,3.6594,3.6636,3.6635,3.6635,3.6635,3.6737,3.674,3.6744,0,0,0,0,0,0,0,0,0,0,0,0,0,3.6404,3.6323,3.6486,3.6522,3.6527,3.6591,3.6593,3.6595,3.6636,3.6635,3.6635,3.6635,3.6735,3.674,3.6744,3.6779,0,0,3.6758,3.676,0,0,0,0,0,0,0,0,3.6399,3.641,3.6516,3.652,3.6525,3.66,3.6571,3.6656,3.6636,3.6594,3.6635,3.6635,3.6692,3.67,3.672,3.6784,3.6788,3.6758,3.6761,3.6763,3.6764,0,0,0,0,0,0,0,3.6393,3.6406,3.6528,3.6517,3.6523,3.6532,3.6544,3.6588,3.6644,3.6598,3.6601,3.6613,3.6694,3.6716,3.6723,3.679,3.6758,3.6762,3.6765,3.6766,3.6889,3.6889,0,0,0,0,0,0,3.6382,3.6401,3.6525,3.6531,3.646,3.6536,3.6549,3.6576,3.6643,3.6653,3.6613,3.6615,3.6708,3.6718,3.6727,3.6773,3.6763,3.6767,3.6769,3.6888,3.6889,3.689,0,0,0,0,0,0,3.6378,3.6393,3.652,3.6467,3.6484,3.6539,3.657,3.6579,3.66,3.6655,3.6665,3.6625,3.6708,3.672,3.6766,3.6777,3.6769,3.6773,3.6888,3.6889,3.6889,3.6866,0,0,0,0,0,0,3.6373,3.6391,3.6406,3.6467,3.6487,3.6559,3.657,3.6581,3.6608,3.6611,3.6669,3.6678,3.6709,3.676,3.6771,3.6783,3.6776,3.6887,3.6888,3.6889,3.6866,3.6866,3.6866,0,0,0,0,0,3.6367,3.6393,3.6406,3.6421,3.6506,3.656,3.6571,3.6607,3.6609,3.6624,3.6659,3.6676,3.6774,3.6764,3.6777,3.6791,3.6886,3.6888,3.6889,3.6866,3.6866,3.6866,0,0,0,0,0,0,3.6329,3.6402,3.6417,3.6464,3.6506,3.6567,3.6586,3.6606,3.6646,3.6647,3.6689,3.6702,3.6745,3.6772,3.6759,3.6829,3.6832,3.6836,3.6809,3.681,3.681,3.6802,3.678,0,0,0,0,0,3.6327,3.6366,3.6426,3.6462,3.6482,3.6531,3.6555,3.658,3.6624,3.6642,3.668,3.6722,3.6762,3.6787,3.6827,3.687,3.6883,3.6886,3.6886,3.6886,3.6889,3.6915,3.6917,3.6894,3.6894,3.6894,0,0,3.6321,3.6366,3.6387,3.6456,3.6491,3.6529,3.6545,3.6585,3.6614,3.6647,3.6694,3.6724,3.6772,3.6817,3.6839,3.6842,3.6898,3.6887,3.6887,3.689,3.6916,3.6918,3.692,3.6895,3.6895,3.6895,0,0,3.6331,3.6369,3.6403,3.6439,3.6493,3.6526,3.6534,3.6593,3.6615,3.6662,3.6689,3.6723,3.6791,3.6826,3.6852,3.6877,3.6894,3.6888,3.6888,3.6913,3.6914,3.6916,3.6926,3.6929,3.6891,3.6891,3.6891,0,3.6317,3.6378,3.6418,3.6458,3.6487,3.6521,3.6557,3.6588,3.6652,3.6671,3.6674,3.6761,3.6796,3.6851,3.6857,3.6877,3.6887,3.6882,3.6911,3.6913,3.6916,3.6925,3.6929,3.689,3.689,3.689,3.689,0,3.6358,3.64,3.6421,3.6484,3.6516,3.6552,3.6598,3.6625,3.6647,3.6679,3.6728,3.6771,3.6822,3.6836,3.6857,3.6894,3.6894,3.6903,3.6907,3.6916,3.6926,3.693,3.6889,3.6889,3.6889,3.6889,0,0,3.6346,3.6433,3.644,3.647,3.6533,3.6565,3.6604,3.6655,3.6678,3.672,3.6754,3.6812,3.6822,3.6851,3.6877,3.6898,3.6917,3.6905,3.6907,3.6906,3.6961,3.6954,3.6958,3.6929,3.693,3.693,3.6957,0,3.6365,3.6438,3.6476,3.6531,3.6571,3.6605,3.6638,3.668,3.6711,3.6748,3.6782,3.6823,3.6832,3.6851,3.6874,3.691,3.6928,3.6908,3.696,3.6961,3.6947,3.6963,3.6955,3.6978,3.6961,3.6962,3.6962,0,3.6397,3.6442,3.6502,3.6562,3.658,3.661,3.6661,3.6696,3.6744,3.6765,3.68,3.6825,3.6867,3.6867,3.6925,3.691,3.6934,3.6955,3.6956,3.6963,3.6962,3.697,3.6986,3.699,3.6969,3.6968,3.6968,0,3.6383,3.6459,3.6505,3.6529,3.66,3.6621,3.6651,3.6699,3.6728,3.6772,3.6791,3.6838,3.6864,3.69,3.6937,3.6934,3.6992,3.6995,3.701,3.7009,3.702,3.7019,3.7041,3.7035,3.7034,3.7034,3.7034,0,3.6401,3.6436,3.65,3.6528,3.657,3.6613,3.6652,3.6685,3.6728,3.6763,3.6794,3.6826,3.6873,3.6911,3.694,3.6984,3.6995,3.7013,3.7021,3.7011,3.7009,3.7027,3.7026,3.7035,3.7035,3.7035,3.7035,0,3.6392,3.6436,3.6489,3.6553,3.657,3.6598,3.6652,3.6681,3.6714,3.6758,3.6771,3.6823,3.6869,3.691,3.697,3.699,3.7035,3.7044,3.7019,3.7024,3.7037,3.7035,3.7071,3.7079,3.7066,3.7066,3.7066,0,3.64,3.6429,3.6497,3.6524,3.6554,3.6596,3.6627,3.6671,3.6701,3.6759,3.6781,3.683,3.6871,3.6943,3.6986,3.7032,3.7043,3.7052,3.705,3.704,3.7044,3.7042,3.7045,3.7052,3.7052,3.7052,3.7052,0,3.6411,3.6432,3.6475,3.6527,3.6563,3.6605,3.6648,3.6668,3.672,3.6752,3.6801,3.6833,3.6897,3.6945,3.6997,3.7027,3.7048,3.7052,3.7059,3.7049,3.7034,3.7043,3.7019,3.7051,3.7051,3.7051,3.7051,3.7051,3.6412,3.644,3.6492,3.654,3.6578,3.6618,3.6649,3.6687,3.6729,3.6785,3.6808,3.6858,3.6906,3.6979,3.7009,3.7048,3.7052,3.706,3.7063,3.7064,3.7063,3.7028,3.7057,3.7057,3.7057,3.7058,3.7058,0,3.6425,3.6461,3.6505,3.6565,3.6603,3.6622,3.6671,3.67,3.6745,3.6789,3.683,3.6887,3.6934,3.6981,3.7031,3.7053,3.7064,3.7065,3.7063,3.707,3.7056,3.7046,3.7055,3.7055,3.7055,3.7055,3.7055,3.7055,3.6436,3.6484,3.6512,3.6579,3.6615,3.6666,3.6692,3.6729,3.6765,3.6828,3.6868,3.6899,3.6945,3.6999,3.7043,3.7055,3.7072,3.707,3.7085,3.7071,3.7071,3.7071,3.7062,3.7074,3.7074,3.7097,3.7097,3.7097]}]]